This demonstration page uses our WeatherBlox Daily Observations layout. Learn more.

Left ArrowRight Arrow

Hourly Observations for November 16, 2016

Temp ( °F °C ) Dew Point ( °F °C ) Humidity (%) Winds ( mph kmh ) Pressure ( in mb ) Visibility ( mi km ) Precip ( " mm )
12:59 am 00:59 Clear 46 7.8 43 6.1 89 89 WSW 5 7 29.89 1012 10 16 0.00 0.00
1:59 am 01:59 Clear 45 7.2 43 6.1 93 93 WSW 3 6 29.88 1012 9 14 0.00 0.00
2:59 am 02:59 Clear 45 7.2 42 5.6 90 90 Calm 29.88 1012 8 13 0.00 0.00
3:59 am 03:59 Clear 44 6.7 42 5.6 93 93 Calm 29.89 1012 7 11 0.00 0.00
4:59 am 04:59 Mostly Clear 44 6.7 42 5.6 93 93 Calm 29.90 1013 7 11 0.00 0.00
5:59 am 05:59 Mostly Clear with Patchy Fog 42 5.6 41 5 96 96 Calm 29.90 1013 7 11 0.00 0.00
6:59 am 06:59 Partly Cloudy with Patchy Fog 42 5.6 40 4.4 92 92 Calm 29.92 1013 7 11 0.00 0.00
7:59 am 07:59 Mostly Sunny 47 8.3 44 6.7 90 90 SW 3 6 29.93 1014 7 11 0.00 0.00
8:59 am 08:59 Mostly Sunny 52 11.1 47 8.3 83 83 WSW 3 6 29.94 1014 7 11 0.00 0.00
9:59 am 09:59 Mostly Sunny 56 13.3 47 8.3 72 72 WNW 3 6 29.95 1014 7 11 0.00 0.00
10:59 am 10:59 Mostly Sunny 62 16.7 41 5 46 46 VRB 3 6 29.93 1014 9 14 0.00 0.00
11:59 am 11:59 Sunny 64 17.8 41 5 43 43 VRB 3 6 29.91 1013 10 16 0.00 0.00
12:59 pm 12:59 Sunny 64 17.8 35 1.7 34 34 W 7 11 29.89 1012 9 14 0.00 0.00
1:59 pm 13:59 Sunny 65 18.3 35 1.7 33 33 VRB 3 6 29.88 1012 10 16 0.00 0.00
2:59 pm 14:59 Sunny 65 18.3 37 2.8 36 36 WSW 7 11 29.88 1012 9 14 0.00 0.00
3:59 pm 15:59 Sunny 64 17.8 34 1.1 33 33 W 5 7 29.90 1012 10 16 0.00 0.00
4:59 pm 16:59 Mostly Clear 56 13.3 41 5 57 57 W 6 9 29.91 1013 9 14 0.00 0.00
5:59 pm 17:59 Clear 52 11.1 43 6.1 72 72 VRB 3 6 29.93 1014 10 16 0.00 0.00
6:59 pm 18:59 Clear 50 10 43 6.1 77 77 SW 3 6 29.94 1014 10 16 0.00 0.00
7:59 pm 19:59 Clear 49 9.4 43 6.1 80 80 Calm 29.95 1014 10 16 0.00 0.00
8:59 pm 20:59 Clear 47 8.3 43 6.1 86 86 Calm 29.96 1015 9 14 0.00 0.00
9:59 pm 21:59 Mostly Clear 48 8.9 43 6.1 83 83 SSW 3 6 29.96 1015 8 13 0.00 0.00
10:59 pm 22:59 Partly Cloudy 47 8.3 43 6.1 86 86 Calm 29.97 1015 8 13 0.00 0.00
11:59 pm 23:59 Clear 46 7.8 42 5.6 86 86 SW 3 6 29.98 1015 8 13 0.00 0.00

Powered by AerisWeather